Tracking 35334 objects as of 13-Sep-2026
HD Live streaming from Space Station
objects crossing your sky now

FALCON 9 DEB


FALCON 9 DEB is no longer on orbit


NORAD ID: 52653
Int'l Code: 2022-052BH
Launch date: May 14, 2022
Source: United States (US)
Launch site: AIR FORCE EASTERN TEST RANGE (AFETR)
Decay date: 2022-06-26

Note: This is SATELLITE DEBRIS
Your satellite tracking list
Your tracking list is empty




NASA's NSSDC Master Catalog

Two Line Element Set (TLE):
1 52653U 22052BH  22177.35133923  .12831943  12629-4  19226-3 0  9998
2 52653  53.1928 220.7692 0004727 305.8275  54.2338 16.48401104  6818
Source of the keplerian elements: AFSPC